Wind_Speed
23 23 24 21 20 20 20 22 23 28 34 32 34 33 32 28 29 32 29 26 26 26 25 23 24 24 23 24 25 23 21 20 23 24 24 24 25 25 26 25 26 26 25 25 25 25 24 23 25
24 24 24 23 19 21 20 23 24 28 31 32 32 33 34 32 31 29 26 25 28 26 25 26 26 26 26 27 26 25 24 22 23 24 25 26 27 27 28 28 28 29 29 29 29 28 28 27 28
24 24 23 22 18 19 22 22 26 26 30 25 29 32 32 27 30 28 27 27 28 27 29 28 29 29 31 29 27 26 25 25 24 25 26 27 28 28 29 30 31 32 33 32 32 32 33 30 31
24 23 23 20 18 18 19 18 21 25 23 24 27 28 31 28 28 28 27 27 27 28 29 29 28 30 32 33 33 33 31 28 27 27 26 26 28 30 31 32 33 35 34 36 37 36 36 36 35
23 23 21 18 18 17 17 16 16 18 18 22 22 26 26 28 28 27 27 27 27 27 27 27 27 28 29 31 33 34 34 34 35 36 35 33 32 32 33 35 36 36 37 38 39 40 40 39 38
23 22 19 18 18 16 15 14 14 15 18 19 22 22 21 25 26 27 27 27 27 29 29 28 28 29 29 29 30 32 32 33 35 34 33 33 34 36 37 39 38 39 40 40 41 42 43 43 43
23 21 19 18 16 12 10 9 12 16 18 18 19 23 19 21 21 22 21 20 19 17 15 13 16 18 20 20 19 22 25 28 29 31 33 33 34 35 37 40 41 42 43 43 44 45 45 46 46
24 23 20 19 16 12 8 6 6 11 15 12 15 14 13 14 14 13 13 11 11 10 9 10 8 8 10 12 13 13 14 17 22 25 27 28 31 33 35 37 40 43 44 43 46 49 48 48 48
27 23 20 20 17 14 10 7 6 8 11 14 14 10 12 11 13 12 11 10 10 10 11 10 10 10 9 11 14 16 17 19 21 23 25 27 29 31 33 35 37 41 44 48 44 44 51 54 52
28 24 22 24 18 14 12 10 9 9 9 9 10 12 11 12 13 13 13 12 13 10 12 12 12 14 15 17 19 21 24 27 29 32 33 35 38 39 40 42 43 44 43 44 47 48 45 49 56
27 23 27 23 20 16 14 12 12 12 11 11 11 12 14 14 15 15 15 15 13 14 15 16 16 18 20 22 24 28 31 35 37 40 42 44 45 47 49 50 51 52 51 50 49 49 56 47 43
30 28 28 24 21 19 17 15 16 14 14 14 14 14 16 16 18 18 18 17 17 18 20 20 21 22 24 27 30 33 37 40 43 45 48 51 52 54 56 58 60 60 61 59 59 56 54 55 57
30 31 29 25 24 21 20 20 18 18 18 17 18 19 19 20 20 21 21 20 20 22 23 24 24 26 29 31 35 38 42 46 50 51 53 54 56 57 61 64 64 64 65 67 67 65 62 59 57
30 30 30 26 26 24 23 22 19 23 20 19 21 22 22 22 22 22 23 23 24 26 27 27 28 30 31 35 39 43 47 50 51 51 51 50 49 47 42 42 46 49 51 58 64 68 65 62 62
29 32 30 27 27 25 25 23 19 22 21 21 21 23 23 24 25 25 25 26 27 28 28 30 30 31 34 38 42 46 49 50 49 48 45 43 39 36 36 37 39 41 43 47 51 54 60 62 60
31 31 29 27 27 26 27 21 21 22 21 23 22 24 26 27 28 27 27 28 29 29 30 30 30 32 36 40 44 47 47 47 46 44 42 42 43 45 44 44 48 49 48 48 49 53 56 57 59
32 29 29 28 29 27 27 24 21 24 23 24 25 26 28 29 29 29 29 30 31 31 30 28 31 34 37 41 41 40 41 43 44 45 47 48 49 51 54 56 56 57 59 58 56 54 56 58 59
31 31 31 31 30 29 29 26 26 26 26 26 27 28 30 31 30 30 30 30 31 32 29 28 31 36 39 38 38 37 37 40 43 45 50 54 56 56 58 60 61 62 63 63 65 64 59 57 59
35 32 33 34 30 32 31 29 29 30 27 27 29 30 32 32 31 31 30 29 30 31 29 30 33 34 34 36 31 35 37 42 44 47 50 52 55 58 61 63 66 67 68 68 68 68 65 62 61
34 35 33 36 32 34 33 31 29 33 30 28 30 32 32 32 29 30 29 29 29 29 28 29 30 32 34 32 36 38 39 41 45 49 53 56 59 62 64 66 69 69 69 70 70 70 67 66 64
36 36 36 35 34 36 35 34 32 31 32 32 31 31 31 30 28 29 28 29 28 28 28 27 29 30 30 34 38 40 44 47 48 51 54 58 61 65 69 70 72 72 71 68 64 64 63 63 65
36 36 35 35 37 39 35 40 32 30 32 33 31 30 29 29 28 28 29 27 27 28 28 27 28 28 31 36 39 44 48 50 54 57 57 60 61 62 64 62 60 58 56 56 57 56 57 60 61
36 35 37 37 38 39 37 41 32 31 29 32 30 28 29 29 29 29 29 27 27 28 28 28 29 31 34 38 42 46 53 58 61 63 63 64 64 62 56 52 50 51 53 53 52 53 55 57 58
36 35 35 36 38 43 36 35 37 28 26 30 29 28 29 30 30 29 28 28 28 29 30 29 30 33 37 41 45 52 59 63 66 67 68 65 60 54 46 46 48 48 48 49 50 46 48 51 53
36 34 37 39 40 43 35 34 34 30 27 29 29 29 30 31 31 30 29 29 29 30 30 30 31 35 40 45 50 57 63 67 70 69 66 60 50 43 43 46 44 44 46 42 44 46 50 54 56
35 37 37 40 39 39 36 37 32 29 27 29 30 28 28 29 31 31 30 30 29 29 30 31 34 37 41 47 54 61 67 71 72 65 58 46 40 38 40 41 44 45 43 44 46 48 56 60 62
41 42 37 39 40 41 41 37 33 29 27 28 30 30 29 29 31 32 30 30 29 30 33 34 37 39 43 49 56 64 71 76 65 53 41 37 37 36 35 36 38 43 46 50 53 56 52 55 59
49 48 48 50 51 45 45 40 32 27 28 29 31 32 31 30 34 33 31 31 32 33 35 37 37 38 44 51 59 67 74 67 51 38 36 36 35 34 34 37 41 44 47 51 54 52 53 53 54
35 46 50 47 49 49 46 40 31 27 27 29 33 33 32 32 38 34 32 31 32 34 36 37 35 38 45 52 61 68 68 50 35 35 35 35 34 34 34 37 44 45 47 50 51 49 51 52 55
37 37 45 52 53 47 46 42 38 29 25 30 35 37 32 30 35 33 31 31 31 33 34 33 33 38 45 55 61 66 49 34 34 33 32 33 32 30 33 37 39 39 43 39 40 44 48 52 55
Wind_Direction
240 244 254 262 264 266 268 265 260 254 249 244 239 237 239 240 241 242 240 237 240 238 240 242 244 245 243 239 240 241 245 241 241 241 241 241 239 241 241 234 234 236 240 245 247 245 242 240 243
239 244 251 263 264 273 273 265 265 265 253 240 237 236 238 232 235 237 242 240 243 243 244 244 243 241 240 238 240 240 236 240 239 241 244 245 246 244 245 246 247 242 239 240 242 246 247 244 240
237 242 250 260 263 274 276 283 274 258 255 241 235 232 244 238 236 238 239 241 239 240 240 242 242 240 239 237 238 245 251 249 245 240 238 242 246 249 250 250 250 250 251 251 247 243 243 243 248
238 240 250 256 265 272 280 286 272 255 247 236 236 235 235 238 239 240 239 239 243 246 246 247 246 244 244 245 248 252 249 249 251 255 254 249 248 249 249 249 251 252 251 250 251 252 252 249 245
236 240 250 255 264 269 272 280 265 246 237 236 234 234 233 233 237 239 241 242 243 248 250 253 255 255 254 252 252 254 255 253 253 256 260 262 261 257 254 254 252 250 251 252 253 252 251 252 253
233 241 244 251 257 260 270 274 257 235 232 233 230 235 229 233 237 240 241 242 243 247 252 256 258 259 260 261 259 258 259 260 261 260 260 259 261 262 261 260 256 257 255 252 252 254 253 253 252
233 239 239 246 252 248 264 270 245 232 233 234 240 244 240 245 245 246 248 246 243 243 241 254 262 262 265 268 267 263 259 261 263 266 268 268 265 263 264 265 264 261 256 259 258 255 252 251 252
233 234 234 239 240 236 238 240 223 216 226 223 223 226 221 237 232 231 233 226 224 224 235 248 252 251 257 265 268 269 269 267 267 269 271 271 271 271 270 269 271 271 264 257 255 257 260 256 252
231 228 230 235 230 226 225 220 216 205 208 215 222 220 223 227 223 226 226 225 234 239 246 251 256 263 276 291 297 296 295 292 289 285 283 279 278 277 276 276 276 275 273 276 268 264 257 254 257
231 226 224 230 227 223 222 226 230 225 220 217 220 223 228 235 240 244 249 249 255 253 260 259 265 276 285 290 294 296 296 294 292 290 287 284 283 281 280 281 281 280 277 274 276 270 263 253 254
231 221 223 223 222 225 226 231 237 238 236 237 236 240 246 248 255 259 261 261 252 258 260 267 277 285 288 291 295 296 296 295 292 289 286 284 282 281 280 278 277 276 275 275 275 274 271 265 254
226 219 220 219 223 227 230 235 241 244 242 244 248 249 257 260 261 261 259 256 254 255 261 266 276 284 288 291 293 297 300 300 298 295 290 287 285 282 279 277 275 275 275 274 273 272 272 270 273
219 218 219 219 224 230 233 237 239 247 247 250 254 255 255 257 257 257 258 257 258 264 266 271 277 283 289 294 298 301 302 302 301 299 295 290 284 279 275 274 273 273 271 273 272 272 271 272 268
219 220 219 220 227 232 236 240 241 249 253 255 258 257 256 256 257 259 261 260 262 266 270 276 281 288 295 299 302 303 301 301 301 300 297 295 289 285 283 280 278 279 279 276 271 271 272 269 268
218 217 220 223 230 234 239 240 243 251 258 259 259 258 257 257 257 259 261 262 263 268 274 278 284 291 296 301 302 302 304 305 304 302 298 292 282 278 280 283 288 286 284 284 283 279 274 275 271
219 220 224 230 236 236 239 240 244 253 259 264 265 262 258 259 261 265 264 267 269 274 276 281 288 294 299 302 304 306 306 304 301 296 289 285 283 282 280 278 283 285 284 281 285 286 281 276 273
220 222 228 231 238 239 242 240 246 254 261 265 265 263 260 260 263 266 266 268 272 275 278 284 290 297 300 303 307 309 308 303 296 288 284 284 285 281 280 281 283 283 285 284 283 281 281 278 274
228 228 232 235 240 242 243 246 248 256 259 266 270 268 263 263 265 266 268 270 275 278 280 287 294 299 303 308 311 314 313 308 300 291 285 283 285 285 283 281 281 281 282 281 282 281 276 274 271
230 230 238 241 240 246 247 246 255 258 262 269 271 269 267 266 267 268 268 272 276 277 281 291 296 300 306 313 321 325 323 318 308 300 295 290 288 286 284 282 281 280 279 279 278 277 275 272 269
234 236 240 243 247 248 250 249 253 260 266 267 269 269 267 266 264 265 270 273 274 275 283 289 296 306 313 318 323 326 323 315 306 299 294 290 289 289 288 285 283 281 278 277 275 275 273 270 268
236 241 242 248 249 252 252 251 251 258 266 268 267 264 267 266 262 264 267 271 272 276 282 287 301 310 313 319 321 323 321 317 311 305 298 293 288 286 285 284 282 281 280 278 275 274 273 270 268
242 244 246 248 250 252 255 256 251 256 266 268 266 265 264 265 263 264 267 270 272 276 281 289 299 305 312 317 319 319 317 314 310 307 302 297 293 292 290 287 284 282 281 279 277 276 274 273 270
243 243 245 247 251 252 251 259 255 261 257 261 263 262 262 263 263 265 268 269 271 276 279 288 297 303 312 314 316 317 316 314 312 310 307 301 298 296 293 288 286 284 282 280 278 278 277 275 273
241 243 246 248 250 252 254 258 262 261 260 258 259 259 259 262 263 266 267 267 269 272 279 286 297 303 310 313 314 316 316 314 312 310 308 304 300 297 292 290 288 286 282 282 281 278 278 277 274
244 245 247 248 249 255 257 257 265 265 261 257 258 258 260 263 265 267 266 269 272 274 277 287 298 305 309 311 313 315 316 314 311 310 308 303 299 294 295 295 291 287 285 284 284 283 284 281 276
243 245 246 251 251 255 257 258 262 264 260 258 259 261 261 262 265 268 268 271 273 276 279 289 298 303 309 312 315 317 316 314 314 312 308 304 300 296 300 299 294 288 284 283 287 287 289 283 279
239 240 244 248 252 254 252 255 263 263 257 256 257 260 261 261 264 267 269 271 273 277 284 293 300 305 312 315 318 318 318 316 315 312 309 306 302 303 302 300 302 299 294 291 291 291 290 288 284
246 243 245 246 246 250 259 263 262 259 254 254 256 257 260 265 267 271 273 274 275 280 286 295 299 306 314 317 319 318 318 318 315 313 310 308 309 306 305 313 313 308 299 297 296 290 287 285 284
252 248 247 248 248 254 258 260 262 256 254 253 255 257 260 266 270 272 272 275 279 282 288 294 299 310 316 320 320 320 321 318 317 316 313 315 313 311 311 313 318 315 307 302 297 293 290 285 285
249 247 241 243 249 252 250 259 262 258 256 258 259 260 262 265 263 265 270 275 280 285 290 295 303 314 321 322 323 322 322 320 320 322 325 323 321 322 323 322 322 314 318 313 305 300 296 292 291
Height
5772 5773 5775 5775 5777 5776 5777 5777 5776 5775 5774 5778 5781 5784 5786 5791 5794 5795 5795 5799 5799 5801 5802 5804 5805 5807 5807 5809 5810 5811 5813 5814 5817 5817 5818 5818 5818 5819 5820 5821 5822 5824 5825 5826 5827 5828 5828 5829 5831
5768 5769 5770 5770 5772 5771 5773 5771 5770 5770 5768 5771 5777 5780 5780 5784 5787 5790 5792 5794 5796 5798 5800 5801 5802 5803 5805 5806 5806 5807 5808 5809 5812 5814 5815 5815 5815 5816 5816 5817 5819 5819 5820 5821 5822 5824 5825 5826 5826
5763 5765 5766 5766 5767 5769 5767 5767 5765 5765 5763 5769 5772 5775 5779 5784 5784 5785 5789 5790 5791 5793 5793 5795 5798 5799 5800 5802 5804 5804 5805 5806 5808 5809 5810 5811 5812 5813 5813 5814 5814 5815 5816 5817 5818 5819 5819 5820 5822
5759 5761 5762 5763 5764 5764 5763 5763 5760 5759 5762 5765 5767 5771 5774 5776 5778 5782 5783 5785 5786 5788 5789 5791 5793 5794 5796 5797 5799 5801 5802 5803 5804 5804 5806 5807 5807 5808 5808 5808 5809 5810 5811 5811 5812 5813 5814 5815 5815
5754 5757 5757 5759 5760 5760 5760 5759 5757 5757 5760 5761 5764 5765 5770 5773 5775 5777 5779 5780 5782 5783 5785 5787 5789 5790 5792 5793 5794 5796 5797 5798 5799 5800 5800 5801 5802 5803 5803 5803 5803 5803 5805 5805 5806 5806 5807 5809 5810
5751 5752 5755 5756 5757 5756 5756 5755 5754 5755 5757 5759 5760 5763 5767 5769 5771 5773 5775 5776 5778 5780 5781 5783 5784 5785 5786 5787 5788 5789 5790 5791 5793 5793 5794 5795 5796 5797 5797 5797 5798 5797 5798 5799 5799 5800 5801 5802 5803
5748 5748 5751 5752 5753 5753 5753 5752 5752 5753 5754 5757 5759 5760 5765 5766 5767 5768 5770 5772 5774 5776 5778 5780 5780 5780 5781 5782 5783 5784 5785 5786 5787 5788 5789 5789 5790 5791 5791 5790 5791 5792 5792 5792 5793 5793 5793 5793 5795
5743 5744 5746 5749 5750 5750 5750 5750 5751 5751 5752 5755 5756 5758 5762 5762 5764 5765 5767 5770 5771 5774 5776 5776 5777 5777 5778 5779 5780 5781 5782 5782 5783 5783 5784 5784 5784 5785 5785 5785 5784 5784 5783 5785 5785 5785 5785 5786 5787
5737 5741 5744 5746 5746 5747 5748 5749 5750 5751 5752 5754 5755 5758 5759 5760 5762 5764 5767 5769 5770 5772 5773 5773 5773 5775 5776 5776 5777 5777 5778 5778 5779 5779 5779 5779 5779 5778 5778 5777 5777 5776 5775 5774 5775 5776 5776 5776 5777
5734 5737 5740 5741 5743 5744 5746 5748 5749 5751 5752 5753 5755 5756 5758 5760 5761 5763 5765 5766 5767 5769 5769 5770 5771 5771 5771 5772 5772 5773 5773 5773 5773 5772 5772 5772 5772 5771 5770 5769 5768 5768 5767 5766 5766 5766 5764 5765 5767
5730 5734 5734 5737 5739 5742 5744 5746 5748 5749 5751 5752 5754 5755 5757 5758 5760 5761 5762 5763 5764 5765 5765 5765 5766 5767 5767 5767 5768 5768 5767 5767 5766 5765 5764 5763 5762 5761 5760 5758 5758 5757 5757 5757 5756 5756 5755 5754 5755
5724 5727 5730 5733 5736 5738 5740 5743 5745 5747 5749 5749 5751 5753 5754 5755 5756 5757 5758 5760 5760 5761 5762 5762 5762 5762 5762 5762 5761 5760 5759 5757 5756 5755 5754 5753 5752 5751 5749 5748 5746 5744 5743 5744 5743 5743 5744 5745 5745
5719 5722 5725 5729 5732 5734 5737 5739 5741 5743 5745 5747 5748 5749 5751 5751 5752 5753 5754 5755 5756 5756 5757 5757 5758 5757 5756 5755 5754 5751 5750 5748 5745 5743 5741 5739 5737 5736 5734 5733 5732 5731 5730 5729 5728 5728 5729 5730 5733
5715 5718 5722 5725 5727 5730 5733 5735 5738 5738 5740 5743 5744 5745 5746 5747 5748 5749 5749 5750 5751 5751 5751 5751 5750 5750 5749 5747 5744 5743 5741 5738 5735 5732 5728 5725 5723 5721 5719 5719 5718 5717 5714 5713 5713 5713 5714 5716 5718
5710 5712 5716 5720 5723 5726 5727 5731 5734 5733 5735 5738 5739 5740 5741 5742 5742 5743 5744 5745 5745 5745 5745 5745 5744 5743 5741 5739 5737 5734 5732 5728 5724 5720 5716 5714 5712 5711 5709 5708 5707 5706 5704 5702 5699 5699 5698 5698 5700
5704 5708 5711 5716 5718 5720 5722 5727 5728 5728 5731 5732 5733 5734 5735 5736 5737 5738 5738 5738 5738 5739 5739 5738 5737 5736 5733 5731 5729 5726 5723 5718 5715 5711 5709 5706 5704 5701 5699 5698 5697 5695 5693 5692 5689 5685 5684 5684 5684
5699 5703 5706 5710 5711 5714 5716 5720 5723 5723 5725 5726 5728 5729 5729 5730 5731 5732 5732 5732 5732 5733 5732 5731 5730 5728 5726 5724 5721 5718 5714 5710 5706 5704 5701 5697 5694 5691 5688 5686 5683 5681 5679 5677 5676 5675 5671 5669 5669
5695 5698 5700 5703 5706 5707 5709 5714 5715 5717 5719 5720 5721 5722 5723 5724 5725 5725 5725 5725 5726 5726 5725 5724 5723 5721 5719 5716 5713 5709 5705 5701 5697 5693 5690 5686 5682 5678 5674 5671 5669 5666 5663 5662 5660 5660 5659 5657 5654
5687 5692 5693 5696 5700 5700 5703 5706 5708 5709 5712 5713 5713 5714 5715 5717 5718 5718 5718 5719 5719 5718 5718 5717 5716 5714 5711 5708 5705 5701 5696 5691 5687 5683 5679 5674 5669 5664 5660 5656 5653 5649 5647 5645 5642 5641 5641 5641 5639
5682 5684 5688 5689 5693 5694 5695 5700 5702 5702 5705 5707 5707 5707 5707 5709 5711 5710 5711 5711 5711 5712 5711 5710 5708 5706 5703 5699 5695 5690 5687 5682 5677 5672 5666 5660 5655 5649 5643 5638 5634 5631 5628 5626 5624 5622 5622 5622 5621
5675 5677 5680 5684 5685 5686 5689 5692 5695 5697 5697 5699 5700 5701 5701 5702 5703 5704 5704 5704 5704 5704 5704 5702 5700 5697 5694 5690 5685 5681 5676 5670 5664 5659 5653 5647 5641 5634 5628 5621 5615 5611 5608 5607 5605 5603 5602 5603 5603
5667 5671 5673 5676 5677 5679 5682 5681 5688 5691 5690 5690 5692 5693 5694 5695 5696 5697 5697 5697 5697 5697 5696 5694 5691 5689 5685 5680 5675 5671 5665 5660 5652 5645 5638 5630 5622 5615 5608 5602 5597 5593 5590 5589 5587 5586 5584 5583 5585
5661 5664 5665 5667 5668 5670 5675 5674 5682 5683 5684 5684 5684 5686 5687 5688 5689 5690 5690 5690 5690 5689 5688 5686 5684 5680 5676 5670 5666 5660 5654 5647 5638 5629 5621 5612 5604 5596 5590 5585 5582 5579 5575 5574 5572 5570 5568 5567 5567
5652 5656 5658 5659 5661 5660 5668 5670 5670 5675 5677 5676 5678 5679 5680 5681 5682 5683 5683 5683 5683 5681 5680 5678 5675 5671 5667 5662 5655 5649 5641 5633 5624 5613 5604 5594 5586 5580 5575 5571 5568 5566 5563 5560 5557 5555 5554 5552 5550
5644 5648 5650 5651 5652 5653 5660 5662 5665 5666 5669 5669 5670 5672 5673 5674 5674 5675 5675 5675 5674 5673 5672 5670 5667 5663 5658 5652 5645 5637 5628 5618 5607 5597 5587 5578 5571 5567 5563 5558 5554 5552 5549 5545 5543 5541 5539 5536 5534
5636 5640 5642 5642 5645 5648 5651 5652 5657 5659 5660 5661 5663 5664 5666 5667 5667 5667 5667 5667 5666 5665 5664 5662 5659 5655 5649 5643 5634 5625 5615 5603 5590 5580 5571 5564 5559 5556 5552 5547 5543 5539 5536 5532 5529 5525 5521 5516 5513
5626 5629 5635 5635 5638 5638 5641 5645 5650 5652 5654 5654 5655 5657 5658 5659 5660 5659 5660 5659 5659 5658 5657 5654 5650 5646 5640 5632 5624 5613 5601 5588 5577 5566 5560 5555 5551 5547 5543 5538 5533 5527 5522 5517 5512 5507 5501 5496 5492
5614 5621 5623 5624 5627 5630 5632 5635 5642 5646 5646 5647 5648 5648 5650 5652 5651 5652 5652 5652 5651 5651 5649 5646 5643 5638 5632 5624 5614 5602 5588 5574 5565 5558 5552 5547 5542 5538 5533 5527 5521 5515 5509 5503 5497 5491 5485 5480 5475
5604 5606 5612 5616 5619 5621 5624 5628 5634 5638 5639 5639 5640 5641 5643 5645 5642 5644 5644 5644 5644 5643 5642 5639 5636 5630 5623 5614 5603 5589 5575 5565 5557 5552 5546 5540 5534 5529 5524 5519 5512 5504 5497 5489 5482 5476 5470 5464 5458
5593 5594 5598 5602 5608 5612 5617 5621 5622 5630 5632 5632 5632 5632 5634 5637 5635 5637 5637 5637 5637 5636 5634 5631 5628 5622 5614 5605 5592 5577 5565 5558 5552 5546 5540 5533 5527 5521 5516 5510 5502 5494 5485 5477 5470 5463 5455 5447 5439